Regional Weather Roundup
Issued by NWS

Home | Current Version | Previous Version | Text Only | Print | Product List | Glossary On
Versions: 1 2 3 4 5 6 7 8 9 10 11 12 13 14 15 16 17 18 19 20 21 22 23 24 25 26 27 28 29 30 31 32 33 34 35 36 37 38 39 40 41 42 43 44 45 46 47 48 49 50
000
ASHW40 PHFO 171843
RWRHI

WEATHER ROUNDUP FOR HAWAII
NATIONAL WEATHER SERVICE HONOLULU HI
800 AM HST TUE OCT 17 2017

THIS IS AN AUTOMATED REPORT THAT HAS NOT BEEN QUALITY CONTROLLED.

NOTE..."FAIR" INDICATES FEW OR NO CLOUDS BELOW 12,000 FEET WITH NO
SIGNIFICANT WEATHER AND/OR OBSTRUCTIONS TO VISIBILITY.

* - THESE SITES REPORT LIMITED FIELDS
# - BUOY DATA PROVIDED BY PACIFIC ISLANDS OCEAN OBSERVING SYSTEM.

HIZ001>004-171900-
KAUAI-NIIHAU-

CITY           SKY/WX    TMP DP  RH WIND       PRES   REMARKS
LIHUE APT      MOSUNNY   80  68  66 NE25G33   30.12R
PORT ALLEN*      N/A     75 N/A N/A NE20G35     N/A
POIPU*           N/A     73 N/A N/A NE9G23      N/A
PRINCEVILLE*     N/A     73 N/A N/A SE6         N/A
KOKOLE POINT*  NOT AVBL
MOLOAA DAIRY*    N/A     77  68  73 E6G14       N/A
WAIMEA HTS*      N/A     84  66  54 E5G16       N/A
PUU OPAE*        N/A    N/A N/A N/A E7G14       N/A
PUU LUA*       NOT AVBL
MAKAHA RIDGE*    N/A     72  61  68 SE2         N/A
$$

HIZ005>011-171900-
OAHU-

CITY           SKY/WX    TMP DP  RH WIND       PRES   REMARKS
HONOLULU       PTSUNNY   80  63  55 NE16G31   30.06R
KALAELOA       PTSUNNY   79  63  57 NE8G22    30.08R
KANEOHE MCB    PTSUNNY   81  66  60 NE13G28   30.06
WHEELER FIELD  NOT AVBL
BELLOWS*         N/A    N/A N/A N/A NE24G31     N/A
KAHUKU*          N/A    N/A N/A N/A NE8G18      N/A
WHEELER*         N/A    N/A N/A N/A NE7G16      N/A
WAIANAE HARBOR   N/A    N/A N/A N/A E10G24      N/A
DILLINGHAM*      N/A     75  64  69 SW10G18     N/A
KAHUKU TRN*      N/A     75  66  73 W10G29      N/A
KAWAILOA*        N/A     72  61  68 E13G26      N/A
KII*             N/A     77  68  73 E18G38      N/A
MAKUA RANGE*     N/A     75  61  60 W12G26      N/A
OAHU FOREST NW   N/A    N/A N/A N/A E20G41      N/A
SCHOFIELD BRK*   N/A     70  59  68 MISG        N/A
SCHOFIELD S*   NOT AVBL
WAIANAE VLY*     N/A     75 N/A N/A SW6         N/A
KUAOKALA*        N/A     73  63  68 E23G44      N/A
HONOULIUULI*   NOT AVBL
MOKUOLOE IS*   NOT AVBL
PALEHUA*         N/A     64  61  88 NE9G25      N/A
WAIAWA PHB*    NOT AVBL
$$

HIZ012>013-171900-
MOLOKAI-

CITY           SKY/WX    TMP DP  RH WIND       PRES   REMARKS
MOLOKAI AIRPT  MOSUNNY   77  63  61 NE16G30   30.08R
KALAUPAPA      NOT AVBL
MAKAPULAPAI*     N/A     75  64  69 E25G37      N/A
MOLOKAI 1*     NOT AVBL
PUU ALII*        N/A     58  58  99 N5G17       N/A
$$

HIZ016-171900-
KAHOOLAWE-

CITY           SKY/WX    TMP DP  RH WIND       PRES   REMARKS
KAHOOLAWE*     NOT AVBL
HAKIOAWA*        N/A     75  61  60 MISG      30.45R
HONOKANAIA*      N/A     77  62  58 E10G24    29.96R
KANELOA*         N/A     75  63  64 SE10G30   30.04S
KEALIALALO*    NOT AVBL
LUA MAKIKA*    NOT AVBL
$$

HIZ014>015-171900-
LANAI-

CITY           SKY/WX    TMP DP  RH WIND       PRES   REMARKS
LANAI CITY     PTSUNNY   73  63  68 E16G26    30.10R
LANAI 1*       NOT AVBL
$$

HIZ017>028-171900-
MAUI-

CITY           SKY/WX    TMP DP  RH WIND       PRES   REMARKS
KAHULUI        MOSUNNY   79  66  64 NE14G23   30.06R
KAPALUA-W MAUI MOSUNNY   75  63  64 NE20G31   30.05
HANA AIRPORT   PTSUNNY   79  72  78 CALM      29.97
HANA*            N/A     75 N/A N/A E9G20       N/A
HALEAKALA SUMM   N/A     43  36  75 E23G44      N/A
MAALAEA BAY*     N/A     79 N/A N/A NE20G30     N/A
HALEAKALA*     NOT AVBL
KAUPO GAP*     NOT AVBL
KULA 1*          N/A     48  39  71 E2          N/A
$$

HIZ023>026-171900-
BIG ISLAND OF HAWAII COAST AND LOWER SLOPES-

CITY           SKY/WX    TMP DP  RH WIND       PRES   REMARKS
KAILUA KONA    MOSUNNY   80  60  50 CALM      29.97R
HILO           CLOUDY    75  67  76 E13       30.08R
HONOKAA*         N/A     70 N/A N/A VRB1        N/A
KAWAIHAE MWT*    N/A     79 N/A N/A E17G31      N/A
KAWAIHAE*        N/A     82 N/A N/A E5        30.00R
SOUTH POINT*     N/A     73 N/A N/A N21G31      N/A
UPOLU AIRPORT* NOT AVBL
KAMUELA*       NOT AVBL
HAKALAU*         N/A     50  46  85 NW3G10      N/A
KALOKO-HONOKO*   N/A     82  68  61 E3        29.98R
PALI 2*          N/A     63  52  67 S17G28      N/A
KEALAKOMO*       N/A     75  63  64 N15G23      N/A
KAUPULEHU*       N/A     79  63  57 SW6G12      N/A
KAPAPALA*        N/A     67  60  77 NW2G13      N/A
LOWER KAHUKU*    N/A    N/A N/A N/A VRB2G8      N/A
PUHE CS*         N/A     79  55  44 E13G28      N/A
PUHO CS*         N/A     72  62  71 E3          N/A
PTA KEAMUKU*     N/A     68  45  42 E17G37      N/A
WAIKOLOA*        N/A     79  54  41 NE20G40     N/A
$$

HIZ027>028-171900-
BIG ISLAND OF HAWAII INTERIOR AND SUMMMITS-

CITY           SKY/WX    TMP DP  RH WIND       PRES   REMARKS
BRADSHAW FIELD NOT AVBL
MK VISITOR CEN   N/A     61   7  11 NE16        N/A
MAUNA KEA*       N/A     41   1  19 NE32        N/A
MAUNA LOA*       N/A     48  -8   9 MISG        N/A
MAUNA LOA 1*   NOT AVBL
PTA KIPUKA*      N/A     73  66  78 NE3         N/A
PTA RANGE 17*    N/A     52  36  54 NW18G26     N/A
PTA WEST*        N/A     64  41  42 E22G30      N/A
NENE CABIN*      N/A     48  46  93 W3          N/A
AHUMOA*          N/A     62  40  44 S2          N/A
PTA PORTABLE*  NOT AVBL
PUU MALI*        N/A    N/A N/A N/A E20G36      N/A
$$

HIC003-171900-
NORTHWEST ISLANDS-

CITY           SKY/WX    TMP DP  RH WIND       PRES   REMARKS
MIDWAY ISLAND  MOCLDY    77  72  83 E22       30.20R
MIDWAY NOS*      N/A     79 N/A N/A MISG      30.19R
FRENCH FRIGATE NOT AVBL
$$

PHZ110>124-180-171900-
BUOY REPORTS

STATION/POSITION TIME  TEMP    WIND        PRES    WAVE   SWELL
                       AIR SEA DIR/SP/G            HT/PER HT/DIR
                 (UTC) (F)     (DEG/KT/KT) (MB)    (FT/S) (FT/D)
BUOY 51001       1830   79 81   70/ 21/ 25 1021.3R
BUOY 51101       1750   79 81   60/ 21/ 27 1020.7R  11/10   7/ 90
BUOY 51100       NOT AVBL
BUOY 51002       1830   80 80   60/ 25/ 31 1014.4R
BUOY 51003       1750   80 82   60/ 23/ 27 1014.9R  11/ 9   7/130
BUOY 51004       1830   79 80   50/ 17/ 23 1015.8R
WAIMEA BAY#      1732      78                N/A     7/ 9   2/ 30
MOKAPU POINT#    1804      80                N/A    10/ 8   3/ 60
LANAI#           NOT AVBL
BARBERS PT 2#    NOT AVBL
PAUWELA#         NOT AVBL
HILO#            1827      80                N/A     9/ 9   3
KANEOHE BAY#     NOT AVBL
KANEOHE BAY 2#   NOT AVBL
HANALEI#         1822      81                N/A    10/10   3/ 50
KAHULUI HARBOR   1806   78 80   50/ 18/ 24 1018.3
HONOLULU HARBOR  1806   78 80   90/  5/ 13 1019.0
PEARL HARBOR#    1800      80                N/A     4/15   3/160
KILO NALU        NOT AVBL
HILO HARBOR      NOT AVBL
MOKUOLOE         1736   77 79   60/ 16/ 22 1018.7R
NAWILIWILI       1806   78 81   50/ 21/ 24 1019.0
WHOTS BUOY       NOT AVBL
BUOY 51028       NOT AVBL
$$

......................KEY........................................
  SKY/WX - SKY CONDITIONS/PRESENT WEATHER
  TMP    - TEMPERATURE IN FAHRENHEIT
  DWPT   - DEWPOINT IN FAHRENHEIT
  RH     - RELATIVE HUMIDITY IN PERCENT
  WIND   - DIRECTION AND SPEED /MPH FOR ISLANDS...KTS FOR BUOYS/
  PRES   - MEAN SEA LEVEL PRESSURE IN INCHES OF HG
  VSB    - VISIBILITY IN MILES
  HX     - HEAT INDEX
  WCI    - WIND CHILL INDEX
  VRB    - VARIABLE WIND DIRECTION
  N/A    - NOT AVAILABLE



USA.gov is the U.S. government's official web portal to all federal, state and local government web resources and services.